CHUANG XIN 1-02(CX-1-02)

导读

创新一号02星(CX-1-02)由中国科学院研制,是中国发射的一颗小型数据采集传输实验卫星。2008年11月5日8时15分,在酒泉卫星发射中心通过长征二号丁运载火箭,与试验卫星三号一同发射升空,卫星成功进入预定轨道。它主要承担水利、水文、气象、电力及减灾等领域各类监测站点的数据采集和传输实验任务,为我国微小卫星技术和低轨卫星通信应用发展积累了实践经验。

Basic Information
目录编号:
33434
目录名称:
CHUANG XIN 1-02(CX-1-02)
国际标识:
2008-056B
轨道中心:
EARTH
卫星名称:
CHUANG XIN 1-02(CX-1-02)
卫星全名:
--
卫星状态:
在轨 (已飞行6433 天)
发射日期:
2008-11-05 UTC
国别 :
中国 (CN)
星等 :
--
Orbit Information
数据来源 国际轨道数据
星历时间: 2026-06-17T13:27:41+0800
3小时前
查看轨道信息
半长轴: 7169.358km
偏心率: 0.0014995
轨道倾角: 98.613°
近地点辐角 136.382°
升交点赤经 194.494°
平近点角 223.855°
近地点: 780.47km
远地点: 801.972km
周期: 100.689分钟
每日圈数: 14.301527
Detailed Information
使用方式:
暂无
2D Orbit Map
3D Orbit Map
Orbit Altitude Analysis Chart
Orbit Inclination Analysis Chart
Orbit Comprehensive Analysis Chart
View Comprehensive Chart